Terminal Aerodrome Forecast
Issued by NWS

Home | Current Version | Previous Version | Text Only | Print | Product List | Glossary On
Versions: 1 2 3 4 5 6 7 8 9 10 11 12
000
FTUS42 TJSJ 231700
TAFISX
TAF
TISX 231730Z 2318/2418 11015G20KT P6SM SCT025 SCT050
     FM232300 08010KT P6SM FEW025
     FM241300 11013KT P6SM SCT025=

USA.gov is the U.S. government's official web portal to all federal, state and local government web resources and services.